Regional Weather Roundup
Issued by NWS State College, PA

Home | Current Version | Previous Version | Graphics & Text | Print | Product List | Glossary Off
Versions: 1 2 3 4 5 6 7 8 9 10 11 12 13 14 15 16 17 18 19 20 21 22 23 24 25 26 27 28 29 30 31 32 33 34 35 36 37 38 39 40 41 42 43 44 45 46 47 48 49 50

000
ASUS41 KCTP 272303
RWRCTP

REGIONAL WEATHER ROUNDUP
NATIONAL WEATHER SERVICE STATE COLLEGE PA
700 PM EDT FRI MAR 27 2015

Note: "fair" indicates few or no clouds below 12,000 feet with no
significant weather and/or obstructions to visibility.

* = STATION THAT DOES NOT REPORT PRECIPITATION /E.G. RAIN...SNOW...ETC/
    THUNDER OR FOG.

PAZ002>004-007>009-013>016-020>023-029>032-280000-
WESTERN PENNSYLVANIA

CITY           SKY/WX    TMP DP  RH WIND       PRES   REMARKS
ERIE           CLOUDY    25  13  60 NW10G20   29.99R HAZE    WCI  15
MEADVILLE      CLOUDY    22  14  71 N9        29.93R WCI  12
FRANKLIN*      CLOUDY    25  16  68 NW9       29.91R
NEW CASTLE     LGT SNOW  24  21  88 NW12G18   29.95R FOG     WCI  13
BEAVER COUNTY  CLOUDY    28  16  59 NW10G16   29.91R
BUTLER*        MOCLDY    28  14  54 NW9       29.91R
PITTSBURGH INT CLOUDY    29  19  66 NW12      29.91R
PITTSBURGH     CLOUDY    28  17  63 NW12      29.89R
INDIANA*       CLOUDY    30  21  69 NW13G18   29.89R
LATROBE        FLURRIES  32  25  74 NW14      29.89R
WASHINGTON CO* CLOUDY    28  21  74 NW13G18   29.92R
$$

PAZ004>006-010>012-017>019-024>028-033>037-041-042-045-046-049>053-280000-
CENTRAL PENNSYLVANIA

CITY           SKY/WX    TMP DP  RH WIND       PRES   REMARKS
BRADFORD       LGT SNOW  24  18  77 NW12      29.81R WCI  13
DUBOIS         LGT SNOW  28  19  69 NW13G22   29.82R
CLEARFIELD     CLOUDY    31  19  61 NW15      29.82R
JOHNSTOWN      LGT SNOW  28  23  81 NW14      29.78R
ALTOONA        CLOUDY    34  24  67 NW9       29.80R
STATE COLLEGE  PTCLDY    36  21  55 NW8       29.80S
WILLIAMSPORT   CLOUDY    42  20  41 N9        29.78S
SELINSGROVE    CLOUDY    43  25  49 N6        29.79R
FT INDIANTOWN  CLOUDY    44  21  41 NE6       29.77R
CAPITAL CITY   MOCLDY    44  21  40 NW14      29.78R
HARRISBURG     MOCLDY    45  24  43 N9        29.78R
YORK           CLOUDY    44  24  45 NW7       29.78R
$$

PAZ038>040-043-044-047-048-054-055-060>062-067>071-280000-
EASTERN PENNSYLVANIA

CITY           SKY/WX    TMP DP  RH WIND       PRES   REMARKS
SCRANTON       CLOUDY    39  24  55 N8        29.77R
MOUNT POCONO   CLOUDY    35  21  56 N9        29.71R
ALLENTOWN      PTCLDY    42  24  49 NW8       29.76R
QUAKERTOWN*    MOCLDY    41  25  52 N7        29.76R
READING        PTCLDY    44  22  41 NW9       29.76R
LANCASTER      MOCLDY    43  24  47 NW10      29.77R
COATESVILLE    MOCLDY    43  25  49 N7        29.76S
POTTSTOWN      CLOUDY    44  26  49 N5        29.77R
BLUE BELL      CLOUDY    45  28  53 N6        29.76R
DOYLESTOWN     CLOUDY    42  27  55 N6        29.75R
WILLOW GROVE   NOT AVBL
NORTH PHILA    CLOUDY    46  25  43 N10       29.78R
PHILADELPHIA   CLOUDY    47  26  44 NW7       29.77R
$$


USA.gov is the U.S. government's official web portal to all federal, state and local government web resources and services.